Regional Weather Roundup
Issued by NWS Little Rock, AR

Home | Current Version | Previous Version | Graphics & Text | Print | Product List | Glossary On
Versions: 1 2 3 4 5 6 7 8 9 10 11 12 13 14 15 16 17 18 19 20 21 22 23 24 25 26 27 28 29 30 31 32
000
ASUS44 KLZK 191705
RWRLZK

WEATHER ROUNDUP FOR ARKANSAS
NATIONAL WEATHER SERVICE LITTLE ROCK AR
1200 PM CDT SAT AUG 19 2017

NOTE: "FAIR" INDICATES FEW OR NO CLOUDS BELOW 12,000 FEET WITH NO
SIGNIFICANT WEATHER AND/OR OBSTRUCTIONS TO VISIBILITY.

ARZ001-003-010-029-191800-
NORTHWEST ARKANSAS

CITY           SKY/WX    TMP DP  RH WIND       PRES   REMARKS
FAYETTEVILLE   SUNNY     86  76  71 W8        30.03S HX  96
FORT SMITH     SUNNY     90  75  61 CALM      29.99F HX 100
HARRISON       SUNNY     88  75  65 VRB7      30.04R HX  97
BENTONVILLE    SUNNY     84  73  70 SW8       30.04F HX  91
ROGERS         SUNNY     86  75  69 W8        30.04F HX  95
SILOAM SPGS    SUNNY     88  73  62 W6        30.02F HX  96
HIGHFILL       SUNNY     86  75  69 W10       30.04S HX  95
SPRINGDALE     MOSUNNY   86  75  70 W9        30.05S HX  95
$$

ARZ004-005-016-191800-
NORTH CENTRAL ARKANSAS

CITY           SKY/WX    TMP DP  RH WIND       PRES   REMARKS
BATESVILLE     SUNNY     90  75  62 W7        29.98F HX 100
FLIPPIN        SUNNY     90  73  58 NE6       29.98S HX  98
MTN HOME       SUNNY     86  75  69 VRB6      30.01S HX  95
$$

ARZ040-041-191800-
WEST CENTRAL ARKANSAS

CITY           SKY/WX    TMP DP  RH WIND       PRES   REMARKS
MENA           SUNNY     91  77  62 SW3       30.03S HX 105
MOUNT IDA      SUNNY     90  71  53 CALM      29.99F HX  96
$$

ARZ009-017-025-026-028-191800-
NORTHEAST ARKANSAS

CITY           SKY/WX    TMP DP  RH WIND       PRES   REMARKS
CORNING        FAIR      88  79  74 CALM      29.97F HX 102
JONESBORO      SUNNY     89  78  70 VRB3      29.97F HX 103
NEWPORT        SUNNY     88  76  67 SW5       29.98F HX  99
WALNUT RIDGE   SUNNY     90  75  62 NW8       29.97S HX 100
BLYTHEVILLE    SUNNY     87  77  72 NW5       29.98F HX  99
$$

ARZ022-023-033-042-044-191800-
CENTRAL ARKANSAS

CITY           SKY/WX    TMP DP  RH WIND       PRES   REMARKS
LITTLE ROCK    MOSUNNY   88  77  69 NW9       29.99S HX 100
N LITTLE ROCK    N/A     87  78  73 NW6       29.99F HX  99
JACKSONVILLE   SUNNY     89  78  69 W9        29.98F HX 102
CONWAY           N/A     90  77  66 W7        29.97S HX 102
SEARCY         SUNNY     90  79  70 MISG      30.00S HX 106
HOT SPRINGS    SUNNY     91  76  61 W5        30.00F HX 103
RUSSELLVILLE   SUNNY     88  77  69 W9        29.99S HX 100
CLINTON        FAIR      90  77  66 SE3       29.99S HX 102
$$

ARZ036-191800-
EAST ARKANSAS

CITY           SKY/WX    TMP DP  RH WIND       PRES   REMARKS
WEST MEMPHIS   SUNNY     87  77  72 VRB5      29.98F HX  99
$$

ARZ050-053-066-070-073-191800-
SOUTHWEST ARKANSAS

CITY           SKY/WX    TMP DP  RH WIND       PRES   REMARKS
ARKADELPHIA    FAIR      92  79  65 W3        29.99F HX 108
CAMDEN         SUNNY     95  75  52 VRB5      29.99S HX 107
TEXARKANA      SUNNY     91  74  57 SW10      30.00F HX 100
EL DORADO      SUNNY     92  75  57 SW10      30.01F HX 103
DE QUEEN       SUNNY     90  79  70 SW6       29.98F HX 106
$$

ARZ056-057-069-191800-
SOUTHEAST ARKANSAS

CITY           SKY/WX    TMP DP  RH WIND       PRES   REMARKS
PINE BLUFF     SUNNY     90  76  63 W8        30.00S HX 101
MONTICELLO     SUNNY     91  76  61 NW6       30.00F HX 103

$$






USA.gov is the U.S. government's official web portal to all federal, state and local government web resources and services.